Simultaneous Nadir Overpasses (SNOs) Predictions

Prediction of SNOs between GOES-15 and METOP-B Satellite Orbit:

Table of predicted SNOs for the next 14.0 days since TLE Epoch: 4/13/2024
Index Date Time (GOES-15) GOES-15 Lat,Lon METOP-B Lat,Lon Distance(km) Time Diff (sec)
1 04/14/2024 05:25:19 -0.11, 61.28 0.34, 59.37 218.24 80
2 04/15/2024 05:07:19 -0.11, 61.29 -0.79, 64.36 349.46 80
3 04/16/2024 17:26:20 0.12, 61.26 -0.18, 59.74 172.31 80
4 04/17/2024 17:02:59 0.12, 61.27 0.89, 64.74 395.25 80
5 04/19/2024 05:21:50 -0.13, 61.33 0.16, 60.18 132.35 80
6 04/20/2024 05:03:50 -0.12, 61.34 -0.98, 65.16 435.40 80
7 04/21/2024 17:20:09 0.13, 61.31 -0.04, 60.56 86.19 80
8 04/22/2024 16:59:29 0.13, 61.33 1.04, 65.55 481.15 80
9 04/24/2024 05:18:20 -0.13, 61.40 -0.06, 60.98 47.27 80
10 04/26/2024 17:19:19 0.14, 61.39 0.14, 61.37 2.85 80
